Weather History for KCNC - November, 2012

Change the Weather History Date:

Friday, November 9, 2012

  Actual Average Record
Temperature  
Mean Temperature 56 °F -  
Max Temperature 66 °F 50 °F 77 °F (1999)
Min Temperature 46 °F 30 °F -2 °F (1991)
Degree Days  
Heating Degree Days 9    
Growing Degree Days 6 (Base 50)    
Moisture  
Dew Point 47 °F    
Average Humidity 69    
Maximum Humidity 77    
Minimum Humidity 55    
Precipitation  
Precipitation 0.00 in - - ()
Sea Level Pressure  
Sea Level Pressure 29.87 in    
Wind  
Wind Speed 8 mph (SSE)    
Max Wind Speed 13 mph    
Max Gust Speed 16 mph    
Visibility 10 miles    
Events      
Averages and records for this station are not official NWS values.
T = Trace of Precipitation, MM = Missing Value Source: NWS Daily Summary

Daily Weather History Graph

Daily Weather History Graph

Search for Another Location

Airport or City:

Trip Planner

Search our weather history database for the weather conditions in past years. The results will help you decide how hot, cold, wet, or windy it might be!

Date:

Astronomy

Nov. 09, 2012 Rise Set
Actual Time 6:54 AM CST 4:59 PM CST
Civil Twilight 6:25 AM CST 5:28 PM CST
Nautical Twilight 5:52 AM CST 6:01 PM CST
Astronomical Twilight 5:20 AM CST 6:34 PM CST
Moon 1:51 AM CST (11/9) 2:15 PM CST (11/9)
Length of Visible Light 11h 03m
Length of Day
10h 05m
Waning Crescent, 23% of the Moon is Illuminated
Nov 9
Waning Crescent
Nov 13
New
Nov 20
First Quarter
Nov 28
Full
Dec 6
Last Quarter

Hourly Weather History & Observations

Time (CST) Temp. Windchill Dew Point Humidity Pressure Visibility Wind Dir Wind Speed Gust Speed Precip Events Conditions
12:15 AM 46.4 °F 42.9 °F 37.4 °F 71% 29.96 in 10.0 mi SSE 6.9 mph - N/A   Clear
12:35 AM 46.4 °F 42.4 °F 37.4 °F 71% 29.95 in 10.0 mi SSE 8.1 mph - N/A   Clear
12:55 AM 46.4 °F 42.9 °F 37.4 °F 71% 29.95 in 10.0 mi SE 6.9 mph - N/A   Clear
1:15 AM 46.4 °F 42.4 °F 37.4 °F 71% 29.95 in 10.0 mi SE 8.1 mph - N/A   Clear
1:35 AM 46.4 °F 42.9 °F 37.4 °F 71% 29.94 in 10.0 mi SSE 6.9 mph - N/A   Clear
1:55 AM 46.4 °F 42.9 °F 37.4 °F 71% 29.94 in 10.0 mi SSE 6.9 mph - N/A   Clear
2:15 AM 46.4 °F 42.9 °F 37.4 °F 71% 29.94 in 10.0 mi SSE 6.9 mph - N/A   Clear
2:35 AM 46.4 °F 42.9 °F 37.4 °F 71% 29.93 in 10.0 mi SSE 6.9 mph - N/A   Clear
2:55 AM 46.4 °F 42.9 °F 37.4 °F 71% 29.93 in 10.0 mi SSE 6.9 mph - N/A   Clear
3:15 AM 46.4 °F 42.9 °F 39.2 °F 76% 29.93 in 10.0 mi SSE 6.9 mph - N/A   Mostly Cloudy
3:35 AM 46.4 °F 42.9 °F 39.2 °F 76% 29.93 in 10.0 mi SSE 6.9 mph - N/A   Mostly Cloudy
3:55 AM 48.2 °F - 39.2 °F 71% 29.93 in 10.0 mi SSE 5.8 mph - N/A   Mostly Cloudy
4:15 AM 48.2 °F - 39.2 °F 71% 29.93 in 10.0 mi SSE 6.9 mph - N/A   Scattered Clouds
4:35 AM 46.4 °F 43.5 °F 39.2 °F 76% 29.93 in 10.0 mi SSE 5.8 mph - N/A   Clear
4:55 AM 48.2 °F - 39.2 °F 71% 29.92 in 10.0 mi SSE 6.9 mph - N/A   Scattered Clouds
5:15 AM 48.2 °F - 39.2 °F 71% 29.92 in 10.0 mi SSE 9.2 mph - N/A   Clear
5:35 AM 48.2 °F - 39.2 °F 71% 29.92 in 10.0 mi SSE 9.2 mph - N/A   Clear
5:55 AM 48.2 °F - 39.2 °F 71% 29.92 in 10.0 mi SSE 6.9 mph - N/A   Scattered Clouds
6:15 AM 48.2 °F - 39.2 °F 71% 29.92 in 10.0 mi SSE 8.1 mph - N/A   Clear
6:35 AM 48.2 °F - 39.2 °F 71% 29.92 in 10.0 mi SSE 8.1 mph - N/A   Clear
6:55 AM 48.2 °F - 39.2 °F 71% 29.92 in 10.0 mi SSE 6.9 mph - N/A   Clear
7:35 AM 48.2 °F - 41.0 °F 76% 29.92 in 10.0 mi SE 6.9 mph - N/A   Clear
7:55 AM 50.0 °F - 42.8 °F 76% 29.92 in 10.0 mi SSE 9.2 mph - N/A   Clear
8:15 AM 51.8 °F - 42.8 °F 71% 29.92 in 10.0 mi SSE 10.4 mph - N/A   Clear
8:35 AM 53.6 °F - 42.8 °F 67% 29.93 in 10.0 mi SSE 10.4 mph - N/A   Clear
8:55 AM 53.6 °F - 44.6 °F 72% 29.93 in 10.0 mi SSE 9.2 mph - N/A   Clear
9:15 AM 55.4 °F - 44.6 °F 67% 29.92 in 10.0 mi SSE 10.4 mph - N/A   Clear
9:35 AM 57.2 °F - 44.6 °F 63% 29.92 in 10.0 mi South 8.1 mph - N/A   Clear
9:55 AM 59.0 °F - 46.4 °F 63% 29.92 in 10.0 mi South 10.4 mph - N/A   Clear
10:15 AM 60.8 °F - 46.4 °F 59% 29.92 in 10.0 mi South 12.7 mph 16.1 mph N/A   Clear
10:55 AM 62.6 °F - 46.4 °F 55% 29.91 in 10.0 mi South 6.9 mph - N/A   Clear
11:15 AM 62.6 °F - 48.2 °F 59% 29.90 in 10.0 mi South 9.2 mph - N/A   Clear
11:35 AM 62.6 °F - 48.2 °F 59% 29.89 in 10.0 mi South 8.1 mph - N/A   Clear
11:55 AM 62.6 °F - 48.2 °F 59% 29.88 in 10.0 mi South 4.6 mph - N/A   Clear
12:15 PM 62.6 °F - 48.2 °F 59% 29.87 in 10.0 mi SE 5.8 mph - N/A   Clear
12:35 PM 64.4 °F - 50.0 °F 59% 29.86 in 10.0 mi SE 5.8 mph - N/A   Clear
12:55 PM 66.2 °F - 50.0 °F 56% 29.85 in 10.0 mi SE 4.6 mph - N/A   Clear
1:15 PM 66.2 °F - 51.8 °F 60% 29.84 in 10.0 mi SE 9.2 mph - N/A   Clear
1:35 PM 64.4 °F - 51.8 °F 64% 29.84 in 10.0 mi SSE 10.4 mph - N/A   Clear
1:55 PM 64.4 °F - 51.8 °F 64% 29.83 in 10.0 mi SSE 9.2 mph - N/A   Clear
2:15 PM 66.2 °F - 51.8 °F 60% 29.83 in 10.0 mi SSE 11.5 mph - N/A   Clear
2:35 PM 66.2 °F - 51.8 °F 60% 29.83 in 10.0 mi SSE 11.5 mph - N/A   Clear
2:55 PM 64.4 °F - 51.8 °F 64% 29.83 in 10.0 mi SSE 10.4 mph - N/A   Clear
3:15 PM 66.2 °F - 51.8 °F 60% 29.82 in 10.0 mi SSE 10.4 mph - N/A   Clear
3:35 PM 66.2 °F - 53.6 °F 64% 29.82 in 10.0 mi SE 11.5 mph - N/A   Clear
3:55 PM 66.2 °F - 53.6 °F 64% 29.82 in 10.0 mi SE 11.5 mph - N/A   Clear
4:15 PM 66.2 °F - 53.6 °F 64% 29.82 in 10.0 mi SE 10.4 mph - N/A   Clear
4:35 PM 64.4 °F - 53.6 °F 68% 29.82 in 10.0 mi SE 6.9 mph - N/A   Clear
4:55 PM 64.4 °F - 53.6 °F 68% 29.81 in 10.0 mi ESE 6.9 mph - N/A   Clear
5:15 PM 62.6 °F - 51.8 °F 68% 29.81 in 10.0 mi ESE 3.5 mph - N/A   Clear
5:35 PM 60.8 °F - 51.8 °F 72% 29.82 in 10.0 mi East 6.9 mph - N/A   Clear
5:55 PM 60.8 °F - 51.8 °F 72% 29.82 in 10.0 mi East 8.1 mph - N/A   Clear
6:15 PM 62.6 °F - 51.8 °F 68% 29.82 in 10.0 mi ESE 6.9 mph - N/A   Mostly Cloudy
6:35 PM 60.8 °F - 51.8 °F 72% 29.82 in 10.0 mi ESE 8.1 mph - N/A   Overcast
6:55 PM 62.6 °F - 51.8 °F 68% 29.81 in 10.0 mi ESE 9.2 mph - N/A   Overcast
7:15 PM 62.6 °F - 51.8 °F 68% 29.82 in 10.0 mi ESE 10.4 mph - N/A   Overcast
7:35 PM 60.8 °F - 51.8 °F 72% 29.82 in 10.0 mi ESE 8.1 mph - N/A   Overcast
7:55 PM 60.8 °F - 51.8 °F 72% 29.82 in 10.0 mi ESE 8.1 mph - N/A   Overcast
8:15 PM 60.8 °F - 51.8 °F 72% 29.82 in 10.0 mi SE 6.9 mph - N/A   Scattered Clouds
8:35 PM 60.8 °F - 53.6 °F 77% 29.82 in 10.0 mi SE 6.9 mph - N/A   Mostly Cloudy
8:55 PM 62.6 °F - 53.6 °F 72% 29.83 in 10.0 mi SSE 8.1 mph - N/A   Overcast
9:15 PM 62.6 °F - 53.6 °F 72% 29.82 in 10.0 mi SE 6.9 mph - N/A   Overcast
9:35 PM 62.6 °F - 53.6 °F 72% 29.82 in 10.0 mi SE 9.2 mph - N/A   Overcast
9:55 PM 62.6 °F - 53.6 °F 72% 29.82 in 10.0 mi SSE 6.9 mph - N/A   Overcast
10:15 PM 62.6 °F - 53.6 °F 72% 29.82 in 10.0 mi SSE 8.1 mph - N/A   Overcast
10:35 PM 62.6 °F - 53.6 °F 72% 29.82 in 10.0 mi SSE 9.2 mph - N/A   Mostly Cloudy
10:55 PM 62.6 °F - 53.6 °F 72% 29.81 in 10.0 mi SSE 8.1 mph - N/A   Overcast
11:15 PM 62.6 °F - 53.6 °F 72% 29.81 in 10.0 mi South 8.1 mph - N/A   Mostly Cloudy
11:35 PM 62.6 °F - 55.4 °F 77% 29.81 in 10.0 mi South 9.2 mph - N/A   Scattered Clouds
11:55 PM 62.6 °F - 55.4 °F 77% 29.81 in 10.0 mi South 10.4 mph - N/A   Clear